Weather History for Olympia, WA

Change the Weather History Date:

Saturday, December 8, 2012

  Actual Average Record
Temperature  
Mean Temperature 41 °F 39 °F  
Max Temperature 45 °F 45 °F 60 °F (1957)
Min Temperature 37 °F 33 °F -3 °F (1972)
Degree Days  
Heating Degree Days 24 26  
Month to date heating degree days 163 206  
Since 1 July heating degree days 1550 1651  
Cooling Degree Days 0 0  
Month to date cooling degree days 0 0  
Year to date cooling degree days 82 106  
Moisture  
Dew Point 36 °F    
Average Humidity 81    
Maximum Humidity 92    
Minimum Humidity 70    
Precipitation  
Precipitation T in 0.25 in 1.49 in (1971)
Month to date precipitation 3.51 2.19  
Year to date precipitation 53.36 44.73  
Sea Level Pressure  
Sea Level Pressure 30.27 in    
Wind  
Wind Speed 6 mph (SSW)    
Max Wind Speed 14 mph    
Max Gust Speed 18 mph    
Visibility 10 miles    
Events Rain    
T = Trace of Precipitation, MM = Missing Value Source: NWS Daily Summary

Daily Weather History Graph

Daily Weather History Graph

Search for Another Location

Airport:

Trip Planner

Search our weather history database for the weather conditions in past years. The results will help you decide how hot, cold, wet, or windy it might be!

Date:

Astronomy

Dec. 08, 2012 Rise Set
Actual Time 7:44 AM PST 4:22 PM PST
Civil Twilight 7:09 AM PST 4:57 PM PST
Nautical Twilight 6:31 AM PST 5:36 PM PST
Astronomical Twilight 5:54 AM PST 6:13 PM PST
Moon 1:59 AM PST (12/8) 1:10 PM PST (12/8)
Length of Visible Light 9h 47m
Length of Day
8h 37m
Waning Crescent, 27% of the Moon is Illuminated
Dec 8
Waning Crescent
Dec 13
New
Dec 19
First Quarter
Dec 28
Full
Jan 4
Last Quarter

Hourly Weather History & Observations

Time (PST) Temp. Windchill Dew Point Humidity Pressure Visibility Wind Dir Wind Speed Gust Speed Precip Events Conditions
12:54 AM 39.0 °F 32.8 °F 35.1 °F 86% 30.19 in 10.0 mi SW 9.2 mph - N/A   Clear
1:54 AM 39.0 °F 32.8 °F 35.1 °F 86% 30.19 in 10.0 mi SSW 9.2 mph - N/A   Clear
2:54 AM 37.4 °F 32.1 °F 35.6 °F 93% 30.19 in 10.0 mi SW 6.9 mph - N/A   Partly Cloudy
3:54 AM 37.0 °F 30.4 °F 35.1 °F 93% 30.19 in 10.0 mi SSW 9.2 mph - N/A   Scattered Clouds
4:54 AM 37.0 °F 29.8 °F 35.1 °F 93% 30.19 in 10.0 mi SSW 10.4 mph - N/A   Clear
5:54 AM 37.9 °F 30.9 °F 35.1 °F 89% 30.19 in 10.0 mi SSW 10.4 mph - N/A   Mostly Cloudy
6:54 AM 37.9 °F 30.9 °F 35.1 °F 89% 30.21 in 10.0 mi SSW 10.4 mph - N/A   Mostly Cloudy
7:54 AM 37.9 °F 30.5 °F 36.0 °F 93% 30.21 in 10.0 mi SSW 11.5 mph - N/A   Scattered Clouds
8:54 AM 39.0 °F 32.3 °F 36.0 °F 89% 30.22 in 10.0 mi SSW 10.4 mph - N/A   Overcast
9:54 AM 39.9 °F 32.9 °F 36.0 °F 86% 30.24 in 10.0 mi SSW 11.5 mph - N/A   Overcast
10:54 AM 42.1 °F 37.1 °F 37.0 °F 82% 30.24 in 10.0 mi SSW 8.1 mph - N/A   Mostly Cloudy
11:54 AM 43.0 °F 39.5 °F 37.9 °F 82% 30.25 in 10.0 mi SSW 5.8 mph - N/A   Mostly Cloudy
12:54 PM 44.1 °F 40.8 °F 37.0 °F 76% 30.25 in 10.0 mi SSW 5.8 mph - N/A   Mostly Cloudy
1:54 PM 44.1 °F - 36.0 °F 73% 30.25 in 10.0 mi Calm Calm - N/A   Scattered Clouds
2:54 PM 44.1 °F 41.5 °F 36.0 °F 73% 30.26 in 10.0 mi NNE 4.6 mph - N/A   Mostly Cloudy
3:54 PM 44.1 °F 42.5 °F 37.0 °F 76% 30.28 in 10.0 mi North 3.5 mph - N/A   Mostly Cloudy
4:54 PM 42.8 °F - 37.4 °F 81% 30.29 in 10.0 mi Calm Calm - N/A   Overcast
5:54 PM 41.0 °F - 37.9 °F 89% 30.30 in 10.0 mi Calm Calm - N/A   Overcast
6:54 PM 41.0 °F - 37.9 °F 89% 30.31 in 10.0 mi Calm Calm - N/A   Overcast
7:54 PM 39.0 °F - 37.9 °F 96% 30.33 in 9.0 mi Calm Calm - N/A   Overcast
8:01 PM 39.2 °F - 37.4 °F 93% 30.33 in 8.0 mi Calm Calm - N/A   Overcast
8:05 PM 39.2 °F - 37.4 °F 93% 30.33 in 8.0 mi Calm Calm - N/A   Overcast
8:32 PM 39.2 °F - 37.4 °F 93% 30.33 in 9.0 mi Calm Calm - 0.00 in   Overcast
8:54 PM 39.0 °F - 37.9 °F 96% 30.34 in 10.0 mi Calm Calm - 0.00 in   Overcast
9:54 PM 39.0 °F - 37.0 °F 93% 30.35 in 9.0 mi Calm Calm - 0.00 in Rain Light Rain
10:54 PM 37.9 °F 35.5 °F 37.0 °F 97% 30.35 in 10.0 mi SSW 3.5 mph - 0.00 in   Overcast
11:54 PM 37.9 °F 34.4 °F 36.0 °F 93% 30.36 in 10.0 mi SW 4.6 mph - N/A   Mostly Cloudy